Location: *
(50.3194°N, 7.1067°E)
Time: 04:06:51
(UTC+00:00)

Cosmos 1892 Rocket - Pass Details

Date: 22 September 2019
Orbit: 605 x 634 km, 82.5° (Epoch: 23 October)

Event Time Altitude Azimuth Distance (km) Brightness Sun altitude
Rises 19:01:07 0° 347° (NNW) 2,931 7.5 -15.0°
Reaches altitude 10° 19:03:23 10° 345° (NNW) 2,015 6.6 -15.4°
Maximum altitude 19:07:49 69° 264° (W) 672 3.9 -16.0°
Drops below altitude 10° 19:12:11 10° 181° (S) 1,980 5.9 -16.7°
Enters shadow 19:13:49 - 179° (S) 2,646 6.6 -16.9°
